Van, Turkey

11:22 PM +03 on April 23, 2017 (GMT +0300)
Van

Weather History for LTCI - October, 2012

Change the Weather History Date:

Monday, October 1, 2012

  Actual Average Record
Temperature  
Mean Temperature 58 °F -  
Max Temperature 72 °F 62 °F 77 °F (2002)
Min Temperature 44 °F 41 °F 32 °F (1998)
Degree Days  
Heating Degree Days 7    
Growing Degree Days 8 (Base 50)    
Moisture  
Dew Point 38 °F    
Average Humidity 44    
Maximum Humidity 66    
Minimum Humidity 22    
Precipitation  
Precipitation 0.00 in 0.06 in - ()
Sea Level Pressure  
Sea Level Pressure 30.34 in    
Wind  
Wind Speed 4 mph ()    
Max Wind Speed 7 mph    
Max Gust Speed -    
Visibility 6.1 miles    
Events      
Averages and records for this station are not official NWS values.
T = Trace of Precipitation, MM = Missing Value Source: Averaged Metar Reports

Daily Weather History Graph

Daily Weather History Graph

Search for Another Location

Airport or City:

Trip Planner

Search our weather history database for the weather conditions in past years. The results will help you decide how hot, cold, wet, or windy it might be!

Date:

Astronomy

Oct. 01, 2012 Rise Set
Actual Time 6:02 AM EEST 5:49 PM EEST
Civil Twilight 5:36 AM EEST 6:15 PM EEST
Nautical Twilight 5:05 AM EEST 6:46 PM EEST
Astronomical Twilight 4:34 AM EEST 7:17 PM EEST
Moon 6:15 PM EEST (10/1) 7:08 AM EEST (10/1)
Length of Visible Light 12h 39m
Length of Day
11h 46m
Full, 99% of the Moon is Illuminated
Oct 1
Full
Oct 8
Last Quarter
Oct 15
New
Oct 22
First Quarter
Oct 29
Full

Hourly Weather History & Observations

Time (EEST) Temp. Windchill Dew Point Humidity Pressure Visibility Wind Dir Wind Speed Gust Speed Precip Events Conditions
12:50 AM 51.8 °F - 33.8 °F 50% 30.30 in - East 5.8 mph - N/A   Clear
1:50 AM 51.8 °F - 32.0 °F 47% 30.30 in - East 3.5 mph - N/A   Clear
3:00 AM 47 °F - 29 °F 38%  in 6 mi NE 5.8 mph - -  
3:50 AM 46.4 °F - 33.8 °F 62% 30.30 in - SE 2.3 mph - N/A   Clear
4:50 AM 46.4 °F 45.2 °F 32.0 °F 57% 30.33 in - NE 3.5 mph - N/A   Clear
5:50 AM 50.0 °F - 32.0 °F 50% 30.33 in - East 3.5 mph - N/A   Clear
6:50 AM 48.2 °F - 37.4 °F 66% 30.36 in - East 3.5 mph - N/A   Clear
7:50 AM 62.6 °F - 41.0 °F 45% 30.36 in - Variable 2.3 mph - N/A   Clear
8:50 AM 66.2 °F - 37.4 °F 35% 30.36 in - Variable 2.3 mph - N/A   Clear
9:00 AM 67 °F - 37 °F 22%  in 6 mi SSW 2.3 mph - -  
9:50 AM 68.0 °F - 42.8 °F 40% 30.36 in - West 6.9 mph - N/A   Clear
10:50 AM 68.0 °F - 46.4 °F 46% 30.36 in - West 6.9 mph - N/A   Clear
11:50 AM 68.0 °F - 46.4 °F 46% 30.36 in - West 6.9 mph - N/A   Clear
12:50 PM 69.8 °F - 41.0 °F 35% 30.33 in - WNW 6.9 mph - N/A   Clear
1:50 PM 71.6 °F - 35.6 °F 27% 30.33 in 6.2 mi WNW 5.8 mph - N/A   Partly Cloudy
2:50 PM 71.6 °F - 42.8 °F 35% 30.33 in 6.2 mi WSW 5.8 mph - N/A   Partly Cloudy
3:00 PM 71 °F - 42 °F 24%  in 6 mi WSW 5.8 mph - -   Scattered Clouds
3:50 PM 69.8 °F - 46.4 °F 43% 30.33 in 6.2 mi WSW 5.8 mph - N/A   Partly Cloudy
4:50 PM 69.8 °F - 50.0 °F 49% 30.33 in 6.2 mi WSW 4.6 mph - N/A   Partly Cloudy
5:50 PM 64.4 °F - 46.4 °F 52% 30.33 in 6.2 mi ESE 1.2 mph - N/A   Partly Cloudy
6:50 PM 57.2 °F - 44.6 °F 63% 30.33 in 6.2 mi Variable 1.2 mph - N/A   Partly Cloudy
7:50 PM 55.4 °F - 37.4 °F 51% 30.33 in 6.2 mi ENE 1.2 mph - N/A   Partly Cloudy
8:50 PM 55.4 °F - 30.2 °F 38% 30.33 in 6.2 mi Calm Calm - N/A   Partly Cloudy
9:00 PM 55 °F - 30 °F 27%  in 6 mi Calm Calm - -   Scattered Clouds
9:50 PM 51.8 °F - 35.6 °F 54% 30.36 in 6.2 mi East 3.5 mph - N/A   Partly Cloudy
10:50 PM 55.4 °F - 32.0 °F 41% 30.33 in 6.2 mi Variable 2.3 mph - N/A   Partly Cloudy
11:50 PM 51.8 °F - 30.2 °F 44% 30.33 in 6.2 mi Variable 3.5 mph - N/A   Partly Cloudy